owner,sensor,date,latitude,longitude,vertical_datum,sea_water_practical_salinity,qcFlag 
NERRS,ioos:station:NOAA.NERRS:gndblwq:1,2016-09-02T19:45:00Z,30.3571,-88.4629,0.88,23.3,1111122 
NERRS,ioos:station:NOAA.NERRS:gndblwq:1,2016-09-02T20:45:00Z,30.3571,-88.4629,0.81,23.2,1111122 
NERRS,ioos:station:NOAA.NERRS:gndblwq:1,2016-09-02T21:45:00Z,30.3571,-88.4629,0.74,23.2,1111122 
NERRS,ioos:station:NOAA.NERRS:gndblwq:1,2016-09-02T22:45:00Z,30.3571,-88.4629,0.69,23.1,1111122 
NERRS,ioos:station:NOAA.NERRS:gndblwq:1,2016-09-02T23:45:00Z,30.3571,-88.4629,0.66,22.9,1111122 
NERRS,ioos:station:NOAA.NERRS:gndblwq:1,2016-09-03T00:45:00Z,30.3571,-88.4629,0.66,22.8,1111122 
NERRS,ioos:station:NOAA.NERRS:gndblwq:1,2016-09-03T01:45:00Z,30.3571,-88.4629,0.71,22.9,1111122 
NERRS,ioos:station:NOAA.NERRS:gndblwq:1,2016-09-03T02:45:00Z,30.3571,-88.4629,0.74,22.9,1111122 
NERRS,ioos:station:NOAA.NERRS:gndblwq:1,2016-09-03T03:45:00Z,30.3571,-88.4629,0.74,22.9,1111122 
NERRS,ioos:station:NOAA.NERRS:gndblwq:1,2016-09-03T04:45:00Z,30.3571,-88.4629,0.71,22.5,1111122 
NERRS,ioos:station:NOAA.NERRS:gndblwq:1,2016-09-03T05:45:00Z,30.3571,-88.4629,0.7,22.6,1111122 
NERRS,ioos:station:NOAA.NERRS:gndblwq:1,2016-09-03T06:45:00Z,30.3571,-88.4629,0.72,22.6,1111122 
NERRS,ioos:station:NOAA.NERRS:gndblwq:1,2016-09-03T07:45:00Z,30.3571,-88.4629,0.75,22.6,1111122 
NERRS,ioos:station:NOAA.NERRS:gndblwq:1,2016-09-03T08:45:00Z,30.3571,-88.4629,0.74,22.6,1111122 
NERRS,ioos:station:NOAA.NERRS:gndblwq:1,2016-09-03T09:45:00Z,30.3571,-88.4629,0.7,22.6,1111122 
NERRS,ioos:station:NOAA.NERRS:gndblwq:1,2016-09-03T10:45:00Z,30.3571,-88.4629,0.69,22.6,1111122 
NERRS,ioos:station:NOAA.NERRS:gndblwq:1,2016-09-03T11:45:00Z,30.3571,-88.4629,0.72,22.7,1111122 
NERRS,ioos:station:NOAA.NERRS:gndblwq:1,2016-09-03T12:45:00Z,30.3571,-88.4629,0.77,22.7,1111122 
NERRS,ioos:station:NOAA.NERRS:gndblwq:1,2016-09-03T13:45:00Z,30.3571,-88.4629,0.81,22.7,1111122 
NERRS,ioos:station:NOAA.NERRS:gndblwq:1,2016-09-03T14:45:00Z,30.3571,-88.4629,0.85,22.9,1111122 
NERRS,ioos:station:NOAA.NERRS:gndblwq:1,2016-09-03T15:45:00Z,30.3571,-88.4629,0.88,22.5,1111122 
NERRS,ioos:station:NOAA.NERRS:gndblwq:1,2016-09-03T16:45:00Z,30.3571,-88.4629,0.82,22.6,1111122 
NERRS,ioos:station:NOAA.NERRS:gndblwq:1,2016-09-03T17:45:00Z,30.3571,-88.4629,0.79,22.6,1111122 
NERRS,ioos:station:NOAA.NERRS:gndblwq:1,2016-09-03T18:45:00Z,30.3571,-88.4629,0.77,22.7,1111122 
NERRS,ioos:station:NOAA.NERRS:gndblwq:1,2016-09-03T19:45:00Z,30.3571,-88.4629,0.79,22.5,1111122 
NERRS,ioos:station:NOAA.NERRS:gndblwq:1,2016-09-03T20:45:00Z,30.3571,-88.4629,0.78,22.6,1111122 
NERRS,ioos:station:NOAA.NERRS:gndblwq:1,2016-09-03T21:45:00Z,30.3571,-88.4629,0.74,22.6,1111122 
NERRS,ioos:station:NOAA.NERRS:gndblwq:1,2016-09-03T22:45:00Z,30.3571,-88.4629,0.71,22.6,1111122 
NERRS,ioos:station:NOAA.NERRS:gndblwq:1,2016-09-03T23:45:00Z,30.3571,-88.4629,0.72,22.6,1111122 
NERRS,ioos:station:NOAA.NERRS:gndblwq:1,2016-09-04T00:45:00Z,30.3571,-88.4629,0.7,22.5,1111122 
NERRS,ioos:station:NOAA.NERRS:gndblwq:1,2016-09-04T01:45:00Z,30.3571,-88.4629,0.7,22.6,1111122 
NERRS,ioos:station:NOAA.NERRS:gndblwq:1,2016-09-04T02:45:00Z,30.3571,-88.4629,0.76,22.3,1111122 
NERRS,ioos:station:NOAA.NERRS:gndblwq:1,2016-09-04T03:45:00Z,30.3571,-88.4629,0.8,22.2,1111122 
NERRS,ioos:station:NOAA.NERRS:gndblwq:1,2016-09-04T04:45:00Z,30.3571,-88.4629,0.79,22.2,1111122 
NERRS,ioos:station:NOAA.NERRS:gndblwq:1,2016-09-04T05:45:00Z,30.3571,-88.4629,0.75,22.4,1111122 
NERRS,ioos:station:NOAA.NERRS:gndblwq:1,2016-09-04T06:45:00Z,30.3571,-88.4629,0.73,22.4,1111122 
NERRS,ioos:station:NOAA.NERRS:gndblwq:1,2016-09-04T07:45:00Z,30.3571,-88.4629,0.73,22.3,1111122 
NERRS,ioos:station:NOAA.NERRS:gndblwq:1,2016-09-04T08:45:00Z,30.3571,-88.4629,0.74,22.3,1111122 
NERRS,ioos:station:NOAA.NERRS:gndblwq:1,2016-09-04T09:45:00Z,30.3571,-88.4629,0.72,22.3,1111122 
NERRS,ioos:station:NOAA.NERRS:gndblwq:1,2016-09-04T10:45:00Z,30.3571,-88.4629,0.69,22.5,1111122 
NERRS,ioos:station:NOAA.NERRS:gndblwq:1,2016-09-04T11:45:00Z,30.3571,-88.4629,0.65,22.5,1111122 
NERRS,ioos:station:NOAA.NERRS:gndblwq:1,2016-09-04T12:45:00Z,30.3571,-88.4629,0.66,22.5,1111122 
NERRS,ioos:station:NOAA.NERRS:gndblwq:1,2016-09-04T13:45:00Z,30.3571,-88.4629,0.71,22.0,1111122 
NERRS,ioos:station:NOAA.NERRS:gndblwq:1,2016-09-04T14:45:00Z,30.3571,-88.4629,0.77,22.1,1111122 
NERRS,ioos:station:NOAA.NERRS:gndblwq:1,2016-09-04T15:45:00Z,30.3571,-88.4629,0.79,22.1,1111122 
NERRS,ioos:station:NOAA.NERRS:gndblwq:1,2016-09-04T16:45:00Z,30.3571,-88.4629,0.81,22.2,1111122 
NERRS,ioos:station:NOAA.NERRS:gndblwq:1,2016-09-04T17:45:00Z,30.3571,-88.4629,0.77,22.3,1111122 
NERRS,ioos:station:NOAA.NERRS:gndblwq:1,2016-09-04T18:45:00Z,30.3571,-88.4629,0.72,22.3,1111122 
NERRS,ioos:station:NOAA.NERRS:gndblwq:1,2016-09-04T19:45:00Z,30.3571,-88.4629,0.69,22.4,1111122 
NERRS,ioos:station:NOAA.NERRS:gndblwq:1,2016-09-04T20:45:00Z,30.3571,-88.4629,0.72,22.2,1111122 
NERRS,ioos:station:NOAA.NERRS:gndblwq:1,2016-09-04T21:45:00Z,30.3571,-88.4629,0.74,22.1,1111122 
NERRS,ioos:station:NOAA.NERRS:gndblwq:1,2016-09-04T22:45:00Z,30.3571,-88.4629,0.73,22.1,1111122 
NERRS,ioos:station:NOAA.NERRS:gndblwq:1,2016-09-04T23:45:00Z,30.3571,-88.4629,0.68,22.5,1111122 
NERRS,ioos:station:NOAA.NERRS:gndblwq:1,2016-09-05T00:45:00Z,30.3571,-88.4629,0.65,22.3,1111122 
NERRS,ioos:station:NOAA.NERRS:gndblwq:1,2016-09-05T01:45:00Z,30.3571,-88.4629,0.68,22.0,1111122 
NERRS,ioos:station:NOAA.NERRS:gndblwq:1,2016-09-05T02:45:00Z,30.3571,-88.4629,0.74,22.1,1111122 
NERRS,ioos:station:NOAA.NERRS:gndblwq:1,2016-09-05T03:45:00Z,30.3571,-88.4629,0.79,21.8,1111122 
NERRS,ioos:station:NOAA.NERRS:gndblwq:1,2016-09-05T04:45:00Z,30.3571,-88.4629,0.81,22.0,1111122 
NERRS,ioos:station:NOAA.NERRS:gndblwq:1,2016-09-05T05:45:00Z,30.3571,-88.4629,0.78,22.1,1111122 
NERRS,ioos:station:NOAA.NERRS:gndblwq:1,2016-09-05T06:45:00Z,30.3571,-88.4629,0.74,22.1,1111122 
NERRS,ioos:station:NOAA.NERRS:gndblwq:1,2016-09-05T07:45:00Z,30.3571,-88.4629,0.74,21.9,1111122 
NERRS,ioos:station:NOAA.NERRS:gndblwq:1,2016-09-05T08:45:00Z,30.3571,-88.4629,0.78,21.7,1111122 
NERRS,ioos:station:NOAA.NERRS:gndblwq:1,2016-09-05T09:45:00Z,30.3571,-88.4629,0.79,21.8,1111122 
NERRS,ioos:station:NOAA.NERRS:gndblwq:1,2016-09-05T10:45:00Z,30.3571,-88.4629,0.76,21.8,1111122 
NERRS,ioos:station:NOAA.NERRS:gndblwq:1,2016-09-05T11:45:00Z,30.3571,-88.4629,0.73,21.6,1111122 
NERRS,ioos:station:NOAA.NERRS:gndblwq:1,2016-09-05T12:45:00Z,30.3571,-88.4629,0.69,21.6,1111122 
NERRS,ioos:station:NOAA.NERRS:gndblwq:1,2016-09-05T13:45:00Z,30.3571,-88.4629,0.71,21.3,1111122 
NERRS,ioos:station:NOAA.NERRS:gndblwq:1,2016-09-05T14:45:00Z,30.3571,-88.4629,0.77,21.1,1111122 
NERRS,ioos:station:NOAA.NERRS:gndblwq:1,2016-09-05T15:45:00Z,30.3571,-88.4629,0.78,21.1,1111122 
NERRS,ioos:station:NOAA.NERRS:gndblwq:1,2016-09-05T16:45:00Z,30.3571,-88.4629,0.78,21.0,1111122 
NERRS,ioos:station:NOAA.NERRS:gndblwq:1,2016-09-05T17:45:00Z,30.3571,-88.4629,0.78,21.0,1111122 
NERRS,ioos:station:NOAA.NERRS:gndblwq:1,2016-09-05T18:45:00Z,30.3571,-88.4629,0.75,21.1,1111122 
NERRS,ioos:station:NOAA.NERRS:gndblwq:1,2016-09-05T19:45:00Z,30.3571,-88.4629,0.73,21.0,1111122 
NERRS,ioos:station:NOAA.NERRS:gndblwq:1,2016-09-05T20:45:00Z,30.3571,-88.4629,0.75,20.8,1111122 
NERRS,ioos:station:NOAA.NERRS:gndblwq:1,2016-09-05T21:45:00Z,30.3571,-88.4629,0.74,20.9,1111122 
NERRS,ioos:station:NOAA.NERRS:gndblwq:1,2016-09-05T22:45:00Z,30.3571,-88.4629,0.7,21.1,1111122 
NERRS,ioos:station:NOAA.NERRS:gndblwq:1,2016-09-05T23:45:00Z,30.3571,-88.4629,0.65,21.1,1111122 
NERRS,ioos:station:NOAA.NERRS:gndblwq:1,2016-09-06T00:45:00Z,30.3571,-88.4629,0.65,19.5,1111122 
NERRS,ioos:station:NOAA.NERRS:gndblwq:1,2016-09-06T01:45:00Z,30.3571,-88.4629,0.71,20.3,1111122 
NERRS,ioos:station:NOAA.NERRS:gndblwq:1,2016-09-06T02:45:00Z,30.3571,-88.4629,0.78,20.5,1111122 
NERRS,ioos:station:NOAA.NERRS:gndblwq:1,2016-09-06T03:45:00Z,30.3571,-88.4629,0.84,20.9,1111122 
NERRS,ioos:station:NOAA.NERRS:gndblwq:1,2016-09-06T04:45:00Z,30.3571,-88.4629,0.88,21.0,1111122 
NERRS,ioos:station:NOAA.NERRS:gndblwq:1,2016-09-06T05:45:00Z,30.3571,-88.4629,0.87,21.1,1111122 
NERRS,ioos:station:NOAA.NERRS:gndblwq:1,2016-09-06T06:45:00Z,30.3571,-88.4629,0.85,21.1,1111122 
NERRS,ioos:station:NOAA.NERRS:gndblwq:1,2016-09-06T07:45:00Z,30.3571,-88.4629,0.85,20.9,1111122 
NERRS,ioos:station:NOAA.NERRS:gndblwq:1,2016-09-06T08:45:00Z,30.3571,-88.4629,0.86,21.1,1111122 
NERRS,ioos:station:NOAA.NERRS:gndblwq:1,2016-09-06T09:45:00Z,30.3571,-88.4629,0.86,21.0,1111122 
NERRS,ioos:station:NOAA.NERRS:gndblwq:1,2016-09-06T10:45:00Z,30.3571,-88.4629,0.84,21.0,1111122 
NERRS,ioos:station:NOAA.NERRS:gndblwq:1,2016-09-06T11:45:00Z,30.3571,-88.4629,0.79,21.2,1111122 
NERRS,ioos:station:NOAA.NERRS:gndblwq:1,2016-09-06T12:45:00Z,30.3571,-88.4629,0.75,20.9,1111122 
NERRS,ioos:station:NOAA.NERRS:gndblwq:1,2016-09-06T13:45:00Z,30.3571,-88.4629,0.72,20.7,1111122 
NERRS,ioos:station:NOAA.NERRS:gndblwq:1,2016-09-06T14:45:00Z,30.3571,-88.4629,0.72,20.6,1111122 
NERRS,ioos:station:NOAA.NERRS:gndblwq:1,2016-09-06T15:45:00Z,30.3571,-88.4629,0.74,20.4,1111122 
NERRS,ioos:station:NOAA.NERRS:gndblwq:1,2016-09-06T16:45:00Z,30.3571,-88.4629,0.76,20.4,1111122 
NERRS,ioos:station:NOAA.NERRS:gndblwq:1,2016-09-06T17:45:00Z,30.3571,-88.4629,0.75,20.4,1111122 
NERRS,ioos:station:NOAA.NERRS:gndblwq:1,2016-09-06T18:45:00Z,30.3571,-88.4629,0.7,20.4,1111122 
NERRS,ioos:station:NOAA.NERRS:gndblwq:1,2016-09-06T19:45:00Z,30.3571,-88.4629,0.71,19.6,1111122 
NERRS,ioos:station:NOAA.NERRS:gndblwq:1,2016-09-06T20:45:00Z,30.3571,-88.4629,0.76,20.2,1111122 
NERRS,ioos:station:NOAA.NERRS:gndblwq:1,2016-09-06T21:45:00Z,30.3571,-88.4629,0.78,20.2,1111122 
NERRS,ioos:station:NOAA.NERRS:gndblwq:1,2016-09-06T22:45:00Z,30.3571,-88.4629,0.78,20.3,1111122 
NERRS,ioos:station:NOAA.NERRS:gndblwq:1,2016-09-06T23:45:00Z,30.3571,-88.4629,0.79,20.4,1111122 
NERRS,ioos:station:NOAA.NERRS:gndblwq:1,2016-09-07T00:45:00Z,30.3571,-88.4629,0.82,20.4,1111122 
NERRS,ioos:station:NOAA.NERRS:gndblwq:1,2016-09-07T01:45:00Z,30.3571,-88.4629,0.85,20.7,1111122 
NERRS,ioos:station:NOAA.NERRS:gndblwq:1,2016-09-07T02:45:00Z,30.3571,-88.4629,0.87,20.9,1111122 
NERRS,ioos:station:NOAA.NERRS:gndblwq:1,2016-09-07T03:45:00Z,30.3571,-88.4629,0.9,21.2,1111122 
NERRS,ioos:station:NOAA.NERRS:gndblwq:1,2016-09-07T04:45:00Z,30.3571,-88.4629,0.9,21.4,1111122 
NERRS,ioos:station:NOAA.NERRS:gndblwq:1,2016-09-07T05:45:00Z,30.3571,-88.4629,0.92,21.2,1111122 
NERRS,ioos:station:NOAA.NERRS:gndblwq:1,2016-09-07T06:45:00Z,30.3571,-88.4629,0.91,21.4,1111122 
NERRS,ioos:station:NOAA.NERRS:gndblwq:1,2016-09-07T07:45:00Z,30.3571,-88.4629,0.89,21.2,1111122 
NERRS,ioos:station:NOAA.NERRS:gndblwq:1,2016-09-07T08:45:00Z,30.3571,-88.4629,0.87,21.2,1111122 
NERRS,ioos:station:NOAA.NERRS:gndblwq:1,2016-09-07T09:45:00Z,30.3571,-88.4629,0.85,20.6,1111122 
NERRS,ioos:station:NOAA.NERRS:gndblwq:1,2016-09-07T10:45:00Z,30.3571,-88.4629,0.82,20.3,1111122 
NERRS,ioos:station:NOAA.NERRS:gndblwq:1,2016-09-07T11:45:00Z,30.3571,-88.4629,0.77,20.6,1111122 
NERRS,ioos:station:NOAA.NERRS:gndblwq:1,2016-09-07T12:45:00Z,30.3571,-88.4629,0.72,20.2,1111122 
NERRS,ioos:station:NOAA.NERRS:gndblwq:1,2016-09-07T13:45:00Z,30.3571,-88.4629,0.68,20.0,1111122 
NERRS,ioos:station:NOAA.NERRS:gndblwq:1,2016-09-07T14:45:00Z,30.3571,-88.4629,0.66,19.7,1111122 
NERRS,ioos:station:NOAA.NERRS:gndblwq:1,2016-09-07T15:45:00Z,30.3571,-88.4629,0.67,19.5,1111122 
NERRS,ioos:station:NOAA.NERRS:gndblwq:1,2016-09-07T17:45:00Z,30.3571,-88.4629,0.61,20.4,1111122 
NERRS,ioos:station:NOAA.NERRS:gndblwq:1,2016-09-07T18:45:00Z,30.3571,-88.4629,0.59,20.2,1111122 
NERRS,ioos:station:NOAA.NERRS:gndblwq:1,2016-09-07T19:45:00Z,30.3571,-88.4629,0.59,20.7,1111122 
NERRS,ioos:station:NOAA.NERRS:gndblwq:1,2016-09-07T20:45:00Z,30.3571,-88.4629,0.58,20.3,1111122 
NERRS,ioos:station:NOAA.NERRS:gndblwq:1,2016-09-07T21:45:00Z,30.3571,-88.4629,0.59,20.3,1111122 
NERRS,ioos:station:NOAA.NERRS:gndblwq:1,2016-09-07T22:45:00Z,30.3571,-88.4629,0.61,20.3,1111122 
NERRS,ioos:station:NOAA.NERRS:gndblwq:1,2016-09-07T23:45:00Z,30.3571,-88.4629,0.65,20.0,1111122 
NERRS,ioos:station:NOAA.NERRS:gndblwq:1,2016-09-08T00:45:00Z,30.3571,-88.4629,0.69,20.2,1111122 
NERRS,ioos:station:NOAA.NERRS:gndblwq:1,2016-09-08T01:45:00Z,30.3571,-88.4629,0.73,20.5,1111122 
NERRS,ioos:station:NOAA.NERRS:gndblwq:1,2016-09-08T02:45:00Z,30.3571,-88.4629,0.75,20.7,1111122 
NERRS,ioos:station:NOAA.NERRS:gndblwq:1,2016-09-08T03:45:00Z,30.3571,-88.4629,0.78,20.8,1111122 
NERRS,ioos:station:NOAA.NERRS:gndblwq:1,2016-09-08T04:45:00Z,30.3571,-88.4629,0.81,21.2,1111122 
NERRS,ioos:station:NOAA.NERRS:gndblwq:1,2016-09-08T05:45:00Z,30.3571,-88.4629,0.85,21.7,1111122 
NERRS,ioos:station:NOAA.NERRS:gndblwq:1,2016-09-08T06:45:00Z,30.3571,-88.4629,0.86,22.1,1111122 
NERRS,ioos:station:NOAA.NERRS:gndblwq:1,2016-09-08T07:45:00Z,30.3571,-88.4629,0.85,21.3,1111122 
NERRS,ioos:station:NOAA.NERRS:gndblwq:1,2016-09-08T08:45:00Z,30.3571,-88.4629,0.82,21.3,1111122 
NERRS,ioos:station:NOAA.NERRS:gndblwq:1,2016-09-08T09:45:00Z,30.3571,-88.4629,0.78,21.2,1111122 
NERRS,ioos:station:NOAA.NERRS:gndblwq:1,2016-09-08T10:45:00Z,30.3571,-88.4629,0.75,20.9,1111122 
NERRS,ioos:station:NOAA.NERRS:gndblwq:1,2016-09-08T11:45:00Z,30.3571,-88.4629,0.73,20.7,1111122 
NERRS,ioos:station:NOAA.NERRS:gndblwq:1,2016-09-08T12:45:00Z,30.3571,-88.4629,0.69,21.2,1111122 
NERRS,ioos:station:NOAA.NERRS:gndblwq:1,2016-09-08T13:45:00Z,30.3571,-88.4629,0.64,21.0,1111122 
NERRS,ioos:station:NOAA.NERRS:gndblwq:1,2016-09-08T14:45:00Z,30.3571,-88.4629,0.6,20.9,1111122 
NERRS,ioos:station:NOAA.NERRS:gndblwq:1,2016-09-08T15:45:00Z,30.3571,-88.4629,0.58,20.8,1111122 
NERRS,ioos:station:NOAA.NERRS:gndblwq:1,2016-09-08T16:45:00Z,30.3571,-88.4629,0.54,20.8,1111122 
NERRS,ioos:station:NOAA.NERRS:gndblwq:1,2016-09-08T17:45:00Z,30.3571,-88.4629,0.53,20.8,1111122 
NERRS,ioos:station:NOAA.NERRS:gndblwq:1,2016-09-08T18:45:00Z,30.3571,-88.4629,0.54,20.7,1111122 
NERRS,ioos:station:NOAA.NERRS:gndblwq:1,2016-09-08T19:45:00Z,30.3571,-88.4629,0.53,20.5,1111122 
NERRS,ioos:station:NOAA.NERRS:gndblwq:1,2016-09-08T20:45:00Z,30.3571,-88.4629,0.53,20.8,1111122 
NERRS,ioos:station:NOAA.NERRS:gndblwq:1,2016-09-08T21:45:00Z,30.3571,-88.4629,0.54,20.2,1111122 
NERRS,ioos:station:NOAA.NERRS:gndblwq:1,2016-09-08T22:45:00Z,30.3571,-88.4629,0.57,20.2,1111122 
NERRS,ioos:station:NOAA.NERRS:gndblwq:1,2016-09-08T23:45:00Z,30.3571,-88.4629,0.61,20.0,1111122 
NERRS,ioos:station:NOAA.NERRS:gndblwq:1,2016-09-09T00:45:00Z,30.3571,-88.4629,0.65,20.2,1111122 
NERRS,ioos:station:NOAA.NERRS:gndblwq:1,2016-09-09T01:45:00Z,30.3571,-88.4629,0.7,20.4,1111122 
NERRS,ioos:station:NOAA.NERRS:gndblwq:1,2016-09-09T02:45:00Z,30.3571,-88.4629,0.74,20.8,1111122 
NERRS,ioos:station:NOAA.NERRS:gndblwq:1,2016-09-09T03:45:00Z,30.3571,-88.4629,0.79,21.1,1111122 
NERRS,ioos:station:NOAA.NERRS:gndblwq:1,2016-09-09T04:45:00Z,30.3571,-88.4629,0.82,21.7,1111122 
NERRS,ioos:station:NOAA.NERRS:gndblwq:1,2016-09-09T05:45:00Z,30.3571,-88.4629,0.84,22.4,1111122 
NERRS,ioos:station:NOAA.NERRS:gndblwq:1,2016-09-09T06:45:00Z,30.3571,-88.4629,0.85,22.5,1111122 
NERRS,ioos:station:NOAA.NERRS:gndblwq:1,2016-09-09T07:45:00Z,30.3571,-88.4629,0.87,22.7,1111122 
NERRS,ioos:station:NOAA.NERRS:gndblwq:1,2016-09-09T08:45:00Z,30.3571,-88.4629,0.87,22.8,1111122 
NERRS,ioos:station:NOAA.NERRS:gndblwq:1,2016-09-09T09:45:00Z,30.3571,-88.4629,0.84,22.4,1111122 
NERRS,ioos:station:NOAA.NERRS:gndblwq:1,2016-09-09T10:45:00Z,30.3571,-88.4629,0.8,21.7,1111122 
NERRS,ioos:station:NOAA.NERRS:gndblwq:1,2016-09-09T11:45:00Z,30.3571,-88.4629,0.76,21.9,1111122 
NERRS,ioos:station:NOAA.NERRS:gndblwq:1,2016-09-09T12:45:00Z,30.3571,-88.4629,0.73,21.2,1111122 
NERRS,ioos:station:NOAA.NERRS:gndblwq:1,2016-09-09T13:45:00Z,30.3571,-88.4629,0.69,21.4,1111122 
NERRS,ioos:station:NOAA.NERRS:gndblwq:1,2016-09-09T14:45:00Z,30.3571,-88.4629,0.65,21.4,1111122 
NERRS,ioos:station:NOAA.NERRS:gndblwq:1,2016-09-09T15:45:00Z,30.3571,-88.4629,0.58,21.3,1111122 
NERRS,ioos:station:NOAA.NERRS:gndblwq:1,2016-09-09T16:45:00Z,30.3571,-88.4629,0.52,21.4,1111122 
NERRS,ioos:station:NOAA.NERRS:gndblwq:1,2016-09-09T17:45:00Z,30.3571,-88.4629,0.47,21.2,1111122 
NERRS,ioos:station:NOAA.NERRS:gndblwq:1,2016-09-09T18:45:00Z,30.3571,-88.4629,0.48,21.0,1111122 
NERRS,ioos:station:NOAA.NERRS:gndblwq:1,2016-09-09T19:45:00Z,30.3571,-88.4629,0.5,20.9,1111122 
NERRS,ioos:station:NOAA.NERRS:gndblwq:1,2016-09-09T20:45:00Z,30.3571,-88.4629,0.51,20.9,1111122 
NERRS,ioos:station:NOAA.NERRS:gndblwq:1,2016-09-09T21:45:00Z,30.3571,-88.4629,0.53,20.4,1111122 
NERRS,ioos:station:NOAA.NERRS:gndblwq:1,2016-09-09T22:45:00Z,30.3571,-88.4629,0.54,21.0,1111122 
NERRS,ioos:station:NOAA.NERRS:gndblwq:1,2016-09-09T23:45:00Z,30.3571,-88.4629,0.58,20.5,1111122 
NERRS,ioos:station:NOAA.NERRS:gndblwq:1,2016-09-10T02:45:00Z,30.3571,-88.4629,0.72,21.1,1111122 
NERRS,ioos:station:NOAA.NERRS:gndblwq:1,2016-09-10T03:45:00Z,30.3571,-88.4629,0.75,21.2,1111122 
NERRS,ioos:station:NOAA.NERRS:gndblwq:1,2016-09-10T04:45:00Z,30.3571,-88.4629,0.79,21.6,1111122 
NERRS,ioos:station:NOAA.NERRS:gndblwq:1,2016-09-10T05:45:00Z,30.3571,-88.4629,0.83,21.8,1111122 
NERRS,ioos:station:NOAA.NERRS:gndblwq:1,2016-09-10T06:45:00Z,30.3571,-88.4629,0.87,22.5,1111122 
NERRS,ioos:station:NOAA.NERRS:gndblwq:1,2016-09-10T07:45:00Z,30.3571,-88.4629,0.9,22.9,1111122 
NERRS,ioos:station:NOAA.NERRS:gndblwq:1,2016-09-10T08:45:00Z,30.3571,-88.4629,0.9,23.1,1111122 
NERRS,ioos:station:NOAA.NERRS:gndblwq:1,2016-09-10T09:45:00Z,30.3571,-88.4629,0.87,21.8,1111122 
NERRS,ioos:station:NOAA.NERRS:gndblwq:1,2016-09-10T10:45:00Z,30.3571,-88.4629,0.83,22.4,1111122 
NERRS,ioos:station:NOAA.NERRS:gndblwq:1,2016-09-10T11:45:00Z,30.3571,-88.4629,0.79,21.6,1111122 
NERRS,ioos:station:NOAA.NERRS:gndblwq:1,2016-09-10T12:45:00Z,30.3571,-88.4629,0.76,21.2,1111122 
NERRS,ioos:station:NOAA.NERRS:gndblwq:1,2016-09-10T13:45:00Z,30.3571,-88.4629,0.72,21.1,1111122 
NERRS,ioos:station:NOAA.NERRS:gndblwq:1,2016-09-10T14:45:00Z,30.3571,-88.4629,0.67,21.0,1111122 
NERRS,ioos:station:NOAA.NERRS:gndblwq:1,2016-09-10T15:45:00Z,30.3571,-88.4629,0.61,21.1,1111122 
NERRS,ioos:station:NOAA.NERRS:gndblwq:1,2016-09-10T16:45:00Z,30.3571,-88.4629,0.55,21.1,1111122 
NERRS,ioos:station:NOAA.NERRS:gndblwq:1,2016-09-10T17:45:00Z,30.3571,-88.4629,0.51,21.2,1111122 
NERRS,ioos:station:NOAA.NERRS:gndblwq:1,2016-09-10T18:45:00Z,30.3571,-88.4629,0.46,21.3,1111122 
NERRS,ioos:station:NOAA.NERRS:gndblwq:1,2016-09-10T19:45:00Z,30.3571,-88.4629,0.48,21.1,1111122 
NERRS,ioos:station:NOAA.NERRS:gndblwq:1,2016-09-10T20:45:00Z,30.3571,-88.4629,0.49,21.2,1111122 
NERRS,ioos:station:NOAA.NERRS:gndblwq:1,2016-09-10T21:45:00Z,30.3571,-88.4629,0.49,21.3,1111122 
NERRS,ioos:station:NOAA.NERRS:gndblwq:1,2016-09-10T22:45:00Z,30.3571,-88.4629,0.5,20.7,1111122 
NERRS,ioos:station:NOAA.NERRS:gndblwq:1,2016-09-10T23:45:00Z,30.3571,-88.4629,0.52,20.3,1111122 
NERRS,ioos:station:NOAA.NERRS:gndblwq:1,2016-09-11T00:45:00Z,30.3571,-88.4629,0.58,20.5,1111122 
NERRS,ioos:station:NOAA.NERRS:gndblwq:1,2016-09-11T01:45:00Z,30.3571,-88.4629,0.65,20.9,1111122 
NERRS,ioos:station:NOAA.NERRS:gndblwq:1,2016-09-11T02:45:00Z,30.3571,-88.4629,0.71,21.0,1111122 
NERRS,ioos:station:NOAA.NERRS:gndblwq:1,2016-09-11T03:45:00Z,30.3571,-88.4629,0.74,21.7,1111122 
NERRS,ioos:station:NOAA.NERRS:gndblwq:1,2016-09-11T04:45:00Z,30.3571,-88.4629,0.73,21.9,1111122 
NERRS,ioos:station:NOAA.NERRS:gndblwq:1,2016-09-11T05:45:00Z,30.3571,-88.4629,0.71,20.9,1111122 
NERRS,ioos:station:NOAA.NERRS:gndblwq:1,2016-09-11T06:45:00Z,30.3571,-88.4629,0.72,21.0,1111122 
NERRS,ioos:station:NOAA.NERRS:gndblwq:1,2016-09-11T07:45:00Z,30.3571,-88.4629,0.76,21.1,1111122 
NERRS,ioos:station:NOAA.NERRS:gndblwq:1,2016-09-11T08:45:00Z,30.3571,-88.4629,0.81,22.2,1111122 
NERRS,ioos:station:NOAA.NERRS:gndblwq:1,2016-09-11T09:45:00Z,30.3571,-88.4629,0.82,22.6,1111122 
NERRS,ioos:station:NOAA.NERRS:gndblwq:1,2016-09-11T10:45:00Z,30.3571,-88.4629,0.79,21.9,1111122 
NERRS,ioos:station:NOAA.NERRS:gndblwq:1,2016-09-11T11:45:00Z,30.3571,-88.4629,0.74,22.2,1111122 
NERRS,ioos:station:NOAA.NERRS:gndblwq:1,2016-09-11T12:45:00Z,30.3571,-88.4629,0.73,21.4,1111122 
NERRS,ioos:station:NOAA.NERRS:gndblwq:1,2016-09-11T13:45:00Z,30.3571,-88.4629,0.71,21.3,1111122 
NERRS,ioos:station:NOAA.NERRS:gndblwq:1,2016-09-11T14:45:00Z,30.3571,-88.4629,0.69,21.6,1111122 
NERRS,ioos:station:NOAA.NERRS:gndblwq:1,2016-09-11T15:45:00Z,30.3571,-88.4629,0.64,21.3,1111122 
NERRS,ioos:station:NOAA.NERRS:gndblwq:1,2016-09-11T16:45:00Z,30.3571,-88.4629,0.57,21.3,1111122 
NERRS,ioos:station:NOAA.NERRS:gndblwq:1,2016-09-11T17:45:00Z,30.3571,-88.4629,0.48,21.2,1111122 
NERRS,ioos:station:NOAA.NERRS:gndblwq:1,2016-09-11T18:45:00Z,30.3571,-88.4629,0.41,21.2,1111122 
NERRS,ioos:station:NOAA.NERRS:gndblwq:1,2016-09-11T19:45:00Z,30.3571,-88.4629,0.42,21.0,1111122 
NERRS,ioos:station:NOAA.NERRS:gndblwq:1,2016-09-11T20:45:00Z,30.3571,-88.4629,0.42,20.9,1111122 
NERRS,ioos:station:NOAA.NERRS:gndblwq:1,2016-09-11T21:45:00Z,30.3571,-88.4629,0.41,21.1,1111122 
NERRS,ioos:station:NOAA.NERRS:gndblwq:1,2016-09-11T22:45:00Z,30.3571,-88.4629,0.46,21.0,1111122 
NERRS,ioos:station:NOAA.NERRS:gndblwq:1,2016-09-11T23:45:00Z,30.3571,-88.4629,0.49,20.7,1111122 
NERRS,ioos:station:NOAA.NERRS:gndblwq:1,2016-09-12T00:45:00Z,30.3571,-88.4629,0.52,20.6,1111122 
NERRS,ioos:station:NOAA.NERRS:gndblwq:1,2016-09-12T01:45:00Z,30.3571,-88.4629,0.51,20.7,1111122 
NERRS,ioos:station:NOAA.NERRS:gndblwq:1,2016-09-12T02:45:00Z,30.3571,-88.4629,0.53,20.6,1111122 
NERRS,ioos:station:NOAA.NERRS:gndblwq:1,2016-09-12T03:45:00Z,30.3571,-88.4629,0.59,20.9,1111122 
NERRS,ioos:station:NOAA.NERRS:gndblwq:1,2016-09-12T04:45:00Z,30.3571,-88.4629,0.59,20.8,1111122 
NERRS,ioos:station:NOAA.NERRS:gndblwq:1,2016-09-12T05:45:00Z,30.3571,-88.4629,0.62,20.7,1111122 
NERRS,ioos:station:NOAA.NERRS:gndblwq:1,2016-09-12T06:45:00Z,30.3571,-88.4629,0.66,20.9,1111122 
NERRS,ioos:station:NOAA.NERRS:gndblwq:1,2016-09-12T07:45:00Z,30.3571,-88.4629,0.71,21.3,1111122 
NERRS,ioos:station:NOAA.NERRS:gndblwq:1,2016-09-12T08:45:00Z,30.3571,-88.4629,0.78,22.1,1111122 
NERRS,ioos:station:NOAA.NERRS:gndblwq:1,2016-09-12T09:45:00Z,30.3571,-88.4629,0.82,22.8,1111122 
NERRS,ioos:station:NOAA.NERRS:gndblwq:1,2016-09-12T10:45:00Z,30.3571,-88.4629,0.8,22.2,1111122 
NERRS,ioos:station:NOAA.NERRS:gndblwq:1,2016-09-12T11:45:00Z,30.3571,-88.4629,0.76,22.8,1111122 
NERRS,ioos:station:NOAA.NERRS:gndblwq:1,2016-09-12T12:45:00Z,30.3571,-88.4629,0.72,22.7,1111122 
NERRS,ioos:station:NOAA.NERRS:gndblwq:1,2016-09-12T13:45:00Z,30.3571,-88.4629,0.7,21.7,1111122 
NERRS,ioos:station:NOAA.NERRS:gndblwq:1,2016-09-12T14:45:00Z,30.3571,-88.4629,0.67,21.4,1111122 
NERRS,ioos:station:NOAA.NERRS:gndblwq:1,2016-09-12T15:45:00Z,30.3571,-88.4629,0.64,22.0,1111122 
NERRS,ioos:station:NOAA.NERRS:gndblwq:1,2016-09-12T16:45:00Z,30.3571,-88.4629,0.61,21.5,1111122 
NERRS,ioos:station:NOAA.NERRS:gndblwq:1,2016-09-12T17:45:00Z,30.3571,-88.4629,0.51,21.4,1111122 
NERRS,ioos:station:NOAA.NERRS:gndblwq:1,2016-09-12T18:45:00Z,30.3571,-88.4629,0.41,21.4,1111122 
NERRS,ioos:station:NOAA.NERRS:gndblwq:1,2016-09-12T19:45:00Z,30.3571,-88.4629,0.39,20.8,1111122 
NERRS,ioos:station:NOAA.NERRS:gndblwq:1,2016-09-12T20:45:00Z,30.3571,-88.4629,0.34,20.5,1111122 
NERRS,ioos:station:NOAA.NERRS:gndblwq:1,2016-09-12T21:45:00Z,30.3571,-88.4629,0.33,20.6,1111122 
NERRS,ioos:station:NOAA.NERRS:gndblwq:1,2016-09-12T22:45:00Z,30.3571,-88.4629,0.42,20.9,1111122 
NERRS,ioos:station:NOAA.NERRS:gndblwq:1,2016-09-12T23:45:00Z,30.3571,-88.4629,0.44,20.9,1111122 
NERRS,ioos:station:NOAA.NERRS:gndblwq:1,2016-09-13T00:45:00Z,30.3571,-88.4629,0.45,20.9,1111122 
NERRS,ioos:station:NOAA.NERRS:gndblwq:1,2016-09-13T01:45:00Z,30.3571,-88.4629,0.54,20.9,1111122 
NERRS,ioos:station:NOAA.NERRS:gndblwq:1,2016-09-13T02:45:00Z,30.3571,-88.4629,0.58,20.9,1111122 
NERRS,ioos:station:NOAA.NERRS:gndblwq:1,2016-09-13T03:45:00Z,30.3571,-88.4629,0.59,20.9,1111122 